Location: Dreilärchen
(47.9312°N, 8.6113°E)
Time: 19:32:00
(UTC+00:00)

Meteor 1-28 Rocket - Pass Details

Date: 26 May 2022
Orbit: 499 x 518 km, 97.4° (Epoch: 02 July)

Event Time Altitude Azimuth Distance (km) Brightness Sun altitude
Exits shadow 02:04:34 16° 191° (S) 1,410 4.9 -12.0°
Maximum altitude 02:07:20 46° 261° (W) 697 3.5 -11.7°
Drops below altitude 10° 02:10:58 10° 336° (NNW) 1,737 6.2 -11.3°
Sets 02:13:07 0° 342° (NNW) 2,625 7.3 -11.1°
